Torna al catalogo

ONEWEB-0701

AttivoComunicazioniPO
NORAD 61607·PAYLOAD·🇬🇧 United Kingdom

Lanciato Oct 20, 2024 da Vandenberg Space Force Base

Loading…

Prossimi Passaggi (prossime 24 ore)

TLE

AggiornatoSource: CelesTrak SupGP

Epoca: Sep 14, 2026, 19:47 UTC

1 61607C 24188P   26257.82446019  .00001999  00000+0  57327-2 0  2579
2 61607  87.8903  18.4214 0001228  80.3405  29.1562 13.10370801    10

Traccia ONEWEB-0701 in tempo reale con AllMySat

Download on the App Store